Lapse_Rate
6.2 5.7 5.7 5.4 5.4 4.0 3.4 4.0 4.7 5.4 6.0 6.0 5.8 5.8 6.3 6.5 6.8 6.5 6.6 6.8 6.8 7.0 7.3 7.4 7.4 7.4 7.3 7.4 7.1 6.8 6.7 6.3 5.8 5.7 5.7 5.5 5.3 5.0 5.1 5.3 5.2 5.1 4.9 4.6 4.6 4.7 4.8 5.0 5.0
5.6 5.4 5.2 4.9 4.8 3.2 3.4 4.3 4.6 5.0 5.6 6.2 6.1 5.9 5.8 5.8 6.4 6.3 6.5 6.6 6.4 6.5 6.9 7.5 7.5 7.5 7.3 7.5 7.3 6.9 6.7 6.4 5.9 5.6 5.6 5.4 5.1 5.0 5.1 5.2 5.1 5.0 4.9 4.6 4.5 4.7 4.8 5.0 5.0
5.6 5.4 5.1 4.6 4.5 3.4 3.7 4.3 4.8 4.6 5.5 5.7 5.7 6.0 5.8 5.8 6.2 5.8 6.2 6.2 6.3 6.3 6.7 7.1 7.6 7.6 7.4 7.4 7.3 7.2 6.8 6.5 6.2 5.6 5.5 5.4 5.1 5.0 5.2 5.2 5.0 4.9 4.8 4.7 4.4 4.6 4.7 4.9 4.9
5.6 5.4 4.9 4.8 5.3 6.1 4.4 4.5 5.2 5.0 5.1 5.2 5.5 5.5 5.2 5.5 6.0 6.0 5.9 6.0 6.2 6.2 6.6 6.8 7.3 7.6 7.5 7.4 7.4 7.2 7.0 6.7 6.4 5.9 5.5 5.5 5.1 5.0 5.1 5.1 4.9 5.0 4.8 4.7 4.4 4.4 4.6 4.8 4.9
5.4 5.3 5.1 5.1 5.9 5.8 5.4 5.1 5.0 5.3 5.1 5.2 5.1 5.5 5.4 5.5 5.5 5.9 5.7 5.7 6.1 6.3 6.5 6.7 6.8 7.6 7.4 7.3 7.3 7.4 7.1 6.7 6.5 6.1 5.6 5.4 5.3 5.0 5.1 5.1 5.1 5.0 4.8 4.6 4.5 4.3 4.4 4.7 4.7
5.0 5.0 4.8 4.9 5.5 5.6 5.5 5.2 5.2 4.8 4.8 5.1 4.2 4.7 5.3 5.6 5.5 5.7 5.9 5.4 5.8 6.1 6.3 6.6 6.8 7.3 7.6 7.3 7.3 7.4 7.2 6.8 6.5 6.2 5.7 5.4 5.2 5.2 5.2 5.2 5.1 5.0 4.8 4.6 4.5 4.4 4.3 4.5 4.8
4.7 4.4 4.4 4.8 4.9 4.8 4.8 4.7 4.4 4.4 4.1 4.6 4.1 3.9 5.2 5.6 5.1 5.5 6.1 6.1 5.6 6.1 6.3 6.4 6.7 7.0 7.1 7.3 7.1 7.3 7.3 6.8 6.5 6.3 5.9 5.3 5.0 5.3 5.3 5.3 5.2 5.0 4.8 4.6 4.6 4.6 4.4 4.5 4.6
3.7 3.5 4.0 4.3 4.6 4.4 4.5 4.0 3.8 3.6 4.3 4.3 4.0 3.3 4.8 5.6 4.7 5.2 5.8 5.9 5.7 5.7 6.4 6.5 6.6 6.8 7.2 7.2 7.2 7.2 7.2 7.1 6.6 6.2 6.0 5.5 5.2 5.3 5.4 5.3 5.2 5.0 4.7 4.5 4.5 4.6 4.6 4.5 4.6
3.6 3.3 3.2 3.9 3.5 4.0 3.6 3.1 3.3 2.8 2.3 3.7 3.7 2.8 4.4 5.2 4.3 4.8 5.2 5.3 5.4 5.6 5.8 6.6 6.6 6.5 6.8 7.1 7.2 7.2 7.0 7.0 6.8 6.3 5.9 5.6 5.4 5.4 5.6 5.5 5.3 5.1 4.7 4.6 4.5 4.5 4.7 4.6 4.6
3.6 3.3 3.5 3.9 3.1 2.9 2.9 2.6 2.9 2.9 3.0 3.2 3.7 3.5 4.5 4.8 4.7 4.6 4.6 5.1 5.4 6.1 5.4 6.0 6.7 6.7 6.6 7.1 7.0 7.1 7.0 6.8 6.8 6.4 6.0 5.8 5.6 5.6 5.7 5.6 5.3 5.0 4.7 4.6 4.6 4.6 4.7 4.7 4.8
4.6 5.6 4.7 5.2 4.2 3.2 3.1 3.2 2.5 2.7 2.8 3.4 3.9 4.3 4.6 4.7 4.7 4.7 4.5 5.4 5.5 5.5 5.4 6.0 6.4 6.7 6.2 6.9 7.2 7.0 6.9 6.8 6.6 6.4 6.2 5.7 5.7 5.6 5.8 5.7 5.5 5.1 4.8 4.7 4.7 4.7 4.8 4.8 4.7
5.0 6.0 6.1 6.7 6.0 5.3 4.8 4.3 4.4 3.3 3.8 3.4 2.8 3.4 3.8 4.1 4.3 4.6 4.4 4.5 5.2 4.9 5.1 5.7 6.2 6.7 6.5 6.6 7.0 7.3 7.1 6.9 6.6 6.5 6.0 5.9 5.8 5.7 5.8 5.7 5.5 5.1 4.9 4.7 4.6 4.7 4.6 4.7 4.7
5.6 6.3 6.4 6.6 6.5 6.6 6.0 6.5 6.1 5.8 6.0 4.4 3.2 3.2 3.4 3.7 3.8 4.8 4.6 4.3 5.2 5.0 4.9 5.9 5.8 6.2 6.3 6.5 6.8 7.0 7.2 6.9 6.6 6.1 5.9 6.0 5.8 5.9 5.9 5.7 5.4 5.2 5.0 4.8 4.7 4.6 4.6 4.8 4.8
5.7 5.7 6.1 6.3 6.7 6.7 6.3 6.7 5.8 7.7 6.9 6.3 5.6 5.0 4.7 3.9 4.2 4.5 4.2 4.1 4.2 5.2 5.0 5.3 5.5 6.0 6.1 6.5 6.7 7.0 7.0 7.0 6.5 5.7 5.9 6.1 5.9 6.1 5.9 5.8 5.4 5.1 5.0 4.8 4.8 4.7 4.8 4.9 5.0
5.4 5.5 6.0 6.3 6.8 6.6 6.2 6.4 7.0 7.2 6.3 6.6 7.0 7.2 6.7 6.0 5.1 3.3 4.3 4.5 4.3 5.4 5.2 4.8 5.5 6.0 6.6 6.3 6.8 6.9 7.0 6.8 6.4 5.8 5.6 5.9 6.1 6.1 5.9 5.7 5.3 5.1 5.0 4.9 4.9 5.0 5.1 5.1 5.1
5.2 5.4 5.9 6.3 6.1 5.8 5.7 7.2 7.2 7.0 6.9 6.8 6.1 6.4 6.2 6.6 5.6 5.6 6.0 5.6 5.6 5.8 5.2 5.3 5.4 5.5 6.4 7.2 6.9 7.1 6.6 6.5 6.2 5.8 5.6 5.9 6.1 6.1 5.9 5.5 5.3 5.2 5.1 5.0 5.0 5.0 5.0 5.1 5.2
5.4 5.6 5.6 5.9 6.1 6.0 6.0 7.0 7.8 6.8 6.3 6.5 6.3 6.0 6.1 5.8 5.9 7.3 6.7 6.4 4.7 4.6 4.9 5.0 5.4 5.7 6.2 6.9 7.0 7.0 6.7 6.1 5.9 6.0 5.8 5.7 6.2 6.3 6.0 5.6 5.3 5.3 5.2 5.2 5.2 5.1 5.2 5.4 5.4
5.1 5.4 5.5 5.7 6.1 6.2 6.5 7.4 7.0 6.2 5.8 6.2 6.2 6.0 6.1 6.3 6.7 7.4 6.3 6.5 5.2 4.8 5.0 5.3 5.2 5.3 5.7 5.4 6.0 6.4 6.4 6.2 6.0 5.9 5.6 6.1 6.4 6.3 6.1 5.6 5.5 5.3 5.3 5.3 5.3 5.3 5.3 5.4 5.5
5.0 5.3 5.3 5.7 5.8 6.1 6.8 6.4 6.4 6.0 5.9 6.2 5.8 5.8 5.8 6.3 6.8 6.5 6.8 6.3 5.9 4.9 5.2 5.1 5.4 5.6 5.4 5.4 5.7 6.1 5.8 5.8 5.8 6.1 5.7 6.0 6.3 6.1 6.0 5.7 5.5 5.4 5.5 5.5 5.4 5.4 5.4 5.6 5.7
5.1 5.2 5.7 6.0 5.9 6.1 6.8 6.2 5.8 5.9 5.9 5.7 6.1 5.8 5.9 6.7 6.9 7.1 7.2 6.5 6.1 5.0 5.3 4.8 4.8 5.1 4.9 5.5 5.7 5.7 5.6 5.5 6.1 6.3 6.0 5.9 6.0 5.9 5.8 5.6 5.5 5.5 5.6 5.5 5.5 5.5 5.6 5.7 5.7
5.7 5.8 5.8 5.5 6.1 6.6 6.6 6.2 5.7 5.8 5.9 5.9 5.8 6.2 6.1 6.2 6.3 6.4 6.8 6.5 5.2 5.9 5.8 4.9 5.2 5.2 5.3 5.2 6.0 5.5 5.0 5.1 5.2 5.3 5.4 5.8 5.9 5.9 5.7 5.6 5.6 5.6 5.6 5.5 5.6 5.6 5.6 5.6 5.9
5.8 6.1 5.6 6.2 6.3 5.9 6.1 5.7 5.3 5.7 6.0 6.3 5.8 6.3 6.4 6.2 6.1 6.2 5.8 5.8 6.0 6.4 5.7 5.8 5.7 5.5 5.6 5.6 5.5 5.6 5.4 5.3 5.3 5.3 5.5 5.7 5.8 5.7 5.7 5.7 5.7 5.7 5.7 5.7 5.6 5.7 5.9 6.0 7.1
6.1 6.3 6.4 6.5 6.9 6.3 6.4 5.8 5.1 5.6 5.0 5.1 5.8 5.7 6.0 6.1 6.0 6.0 5.8 6.1 5.9 6.2 5.6 5.8 5.7 5.6 5.5 5.5 5.5 5.1 5.1 5.2 5.0 5.3 5.2 5.4 5.6 5.5 5.6 5.7 5.8 5.9 6.0 5.9 6.0 6.2 6.5 6.7 6.4
6.6 6.6 6.6 6.9 7.1 6.1 6.1 5.6 5.2 4.9 4.8 5.0 5.8 6.1 6.1 6.1 6.1 6.1 5.9 5.9 5.8 5.7 5.7 5.8 5.5 5.2 5.1 5.1 5.1 4.9 5.2 5.0 5.0 4.9 4.8 5.2 5.5 5.3 5.5 6.1 6.4 6.5 6.2 6.4 6.5 6.4 6.9 7.2 6.6
7.4 7.3 6.4 6.4 6.0 6.5 6.0 5.6 4.7 4.9 5.0 5.1 5.0 5.7 5.9 5.8 5.6 6.0 5.9 5.6 5.8 5.6 5.7 5.6 5.8 5.5 5.6 6.0 5.4 5.5 5.2 4.9 4.8 4.6 5.0 5.0 5.3 5.6 5.9 6.5 7.1 7.1 6.8 6.7 5.9 6.6 6.3 6.7 6.2
6.8 6.5 6.4 6.3 5.4 6.4 6.5 5.4 4.7 4.8 4.7 4.8 5.1 5.2 5.3 5.3 5.8 5.7 4.9 5.3 5.4 5.6 5.4 5.3 5.5 5.4 5.3 5.3 5.3 5.1 5.2 5.4 5.1 4.9 4.8 5.4 5.2 5.8 6.0 7.1 7.0 6.8 6.5 6.0 6.3 6.2 6.6 6.5 5.5
6.8 6.4 6.3 6.5 6.7 6.3 5.8 5.6 5.5 4.9 4.6 4.7 4.9 5.5 5.3 5.1 5.0 5.1 5.1 5.8 5.7 5.5 5.5 5.4 4.9 5.1 4.9 5.4 5.3 5.2 5.0 5.0 4.8 4.7 4.7 4.9 5.0 5.4 5.5 5.4 5.8 5.8 5.5 5.8 6.4 6.2 5.2 5.6 5.6
6.4 6.4 6.3 6.3 5.2 6.2 6.2 5.8 5.4 4.8 5.0 5.0 5.1 5.3 4.9 5.4 5.2 5.3 5.3 5.7 5.5 5.5 5.5 5.3 5.0 5.0 4.9 5.2 5.0 4.8 4.9 5.0 4.8 4.7 4.8 5.0 4.8 4.9 5.3 5.5 5.6 5.3 4.9 5.1 5.8 5.8 6.1 6.1 6.0
6.3 6.0 6.2 6.0 5.9 4.5 4.6 5.9 5.5 5.1 5.0 5.2 5.1 5.3 5.6 6.0 5.6 5.5 5.5 5.7 5.6 5.7 5.7 5.5 5.3 5.2 5.1 5.1 5.1 4.8 4.8 5.0 5.1 5.1 5.1 5.0 4.6 4.6 4.8 5.3 5.2 4.9 5.4 5.5 5.6 5.8 6.0 6.0 5.8
5.3 5.5 5.9 6.2 5.9 5.7 6.2 5.8 5.8 5.2 4.9 5.1 5.5 5.5 5.6 5.9 5.9 5.8 5.5 5.6 5.6 5.5 5.5 5.5 5.6 5.1 5.5 5.1 4.9 4.8 4.9 5.0 4.9 5.1 5.1 5.2 5.3 5.2 5.0 5.1 5.1 5.5 5.5 5.7 5.7 6.0 5.9 5.6 5.5
Wind_Speed
4 7 2 3 3 5 5 6 4 3 4 5 7 6 8 11 5 5 2 8 12 22 26 28 29 32 31 30 29 28 27 25 24 24 25 26 25 23 20 23 23 21 21 23 21 21 22 22 20
4 1 4 2 4 5 5 7 11 4 4 8 4 15 18 18 6 2 8 8 17 17 23 25 28 30 32 30 30 28 28 26 24 24 24 26 25 24 22 24 24 22 23 23 19 19 19 17 16
5 2 3 4 4 11 4 3 4 7 8 4 5 4 4 5 10 5 5 17 20 16 20 23 29 29 31 32 30 29 28 27 26 24 24 24 26 24 24 23 23 24 24 22 18 16 16 15 14
3 4 3 2 16 9 4 4 6 7 8 5 2 8 6 4 10 6 11 20 20 17 19 23 28 28 30 31 31 29 28 28 28 25 24 25 25 24 22 24 25 25 24 22 16 13 13 13 14
3 3 0 6 13 5 5 10 9 12 6 9 3 8 9 10 13 20 7 17 20 17 18 23 27 27 27 31 31 30 28 27 28 26 25 25 25 24 25 25 24 24 22 21 18 13 13 13 13
3 3 2 6 14 9 7 1 6 10 10 15 6 6 6 4 8 11 14 11 17 20 17 24 26 27 27 30 30 29 29 27 27 27 25 25 26 26 26 24 23 22 22 20 18 15 12 12 14
4 3 4 6 13 9 4 3 3 8 10 16 4 14 7 5 5 7 12 13 9 13 19 17 21 24 26 29 30 29 29 28 27 27 26 27 27 27 26 24 23 22 20 19 18 16 12 10 11
2 2 4 5 10 15 8 3 3 6 8 7 8 7 11 2 6 6 8 10 17 12 14 18 17 21 20 21 28 28 28 28 26 25 27 27 27 26 25 22 22 21 20 17 16 16 13 10 9
2 3 8 12 12 14 14 9 12 6 11 10 7 15 12 7 8 7 8 6 10 10 14 15 17 16 19 18 22 25 26 25 26 26 29 29 22 22 24 20 23 22 20 17 15 14 12 11 8
4 5 15 10 14 14 17 11 11 4 9 14 12 10 11 6 6 5 7 8 6 14 19 15 15 16 16 17 19 19 22 21 22 23 26 21 21 19 18 22 23 21 20 18 15 13 11 8 7
5 12 13 16 14 12 16 15 5 8 17 17 20 16 12 7 7 8 6 3 5 14 17 19 16 14 16 13 14 13 15 17 18 23 21 22 18 16 16 16 18 16 18 13 14 12 10 7 6
7 13 15 18 15 11 15 12 15 12 26 18 15 12 9 8 11 10 8 6 4 11 22 14 17 14 14 11 10 11 7 14 12 17 21 17 13 12 12 10 13 13 14 11 12 10 9 6 5
14 16 15 18 18 19 16 20 19 21 21 18 16 20 18 13 15 11 8 6 3 7 15 20 18 16 14 15 11 10 11 9 15 17 21 18 13 10 14 11 11 12 14 13 9 9 8 7 7
4 8 14 14 16 13 16 20 5 24 19 18 18 22 24 18 16 12 11 8 3 8 11 20 19 17 16 15 14 11 11 15 16 16 19 19 17 14 11 10 9 10 13 13 12 9 7 6 7
8 12 15 16 13 9 7 16 19 28 18 20 20 21 23 21 17 16 9 7 8 4 4 19 18 18 20 17 15 11 11 14 9 14 21 20 17 16 11 8 6 11 14 14 11 8 6 3 4
4 3 4 4 0 5 9 21 19 14 14 19 23 23 25 20 18 15 11 11 7 6 8 5 10 16 18 17 15 11 11 11 11 16 18 21 21 21 11 5 5 13 13 11 5 4 3 4 4
3 5 7 9 6 8 10 14 17 7 8 11 15 18 15 20 15 11 14 15 10 4 1 8 8 14 11 14 12 13 12 11 12 17 16 21 22 22 15 9 10 14 9 5 4 3 3 3 3
4 8 7 11 7 10 15 23 25 17 12 19 17 14 10 15 18 11 13 11 11 5 1 5 4 8 7 10 7 7 8 7 12 11 14 21 19 21 16 12 11 12 6 5 4 4 2 3 3
6 8 11 12 11 8 9 18 20 19 16 16 13 8 7 11 8 15 10 13 12 7 8 7 4 3 5 7 11 8 10 7 9 9 17 20 19 19 16 9 8 10 8 6 6 3 4 1 3
11 8 12 8 12 6 13 13 12 15 5 9 3 10 9 7 9 14 13 8 10 12 8 7 9 6 7 7 7 9 8 5 9 9 12 17 18 17 14 9 8 8 5 6 6 5 3 2 2
5 5 5 10 12 5 4 4 19 23 10 9 7 10 10 15 15 14 13 12 12 13 10 11 12 10 10 12 8 8 8 6 4 5 7 8 15 14 13 11 7 7 6 6 6 5 6 3 3
4 3 7 10 8 3 3 3 17 19 23 20 18 16 7 13 12 12 12 10 5 9 5 5 12 12 10 12 12 18 12 13 7 8 8 8 13 10 12 11 10 8 6 7 5 5 4 4 4
6 8 6 7 5 3 4 3 11 15 17 15 20 15 5 6 14 11 9 11 7 10 6 5 5 10 12 13 10 9 12 10 9 6 8 9 7 11 11 11 9 9 7 6 9 7 8 4 5
7 3 3 1 1 3 9 3 7 15 16 18 23 21 12 2 5 11 8 10 8 4 3 3 3 13 11 15 14 13 10 6 9 11 10 8 7 7 9 9 7 7 6 8 7 5 7 6 4
8 4 3 4 4 3 5 7 5 16 15 14 15 19 18 13 7 8 10 7 8 5 3 2 3 6 10 12 16 15 13 10 5 10 10 10 7 6 9 8 8 6 5 6 5 5 5 5 4
5 3 2 2 1 2 6 4 7 13 10 12 12 16 15 16 10 7 4 4 6 4 3 4 2 6 9 10 8 10 10 7 6 4 2 10 10 10 9 8 7 7 7 6 5 4 4 4 3
7 4 1 2 3 5 4 6 2 17 15 8 12 17 15 11 10 8 7 3 6 5 5 3 2 4 3 7 7 9 7 8 8 8 6 3 4 4 6 5 6 4 5 7 6 4 5 4 4
4 4 3 3 3 4 2 3 4 13 13 14 14 13 15 14 14 10 6 5 3 3 2 3 5 4 2 3 7 5 5 5 7 6 7 4 4 5 6 3 5 5 4 5 6 4 4 6 5
6 5 4 3 2 3 2 3 8 10 11 11 13 12 13 14 13 11 8 8 6 5 1 2 5 6 6 5 3 3 3 3 5 5 4 4 3 5 4 6 7 7 7 6 7 6 6 6 5
4 4 2 3 5 2 3 2 6 8 10 11 12 13 13 13 12 11 11 11 10 9 9 6 2 7 9 9 9 7 4 3 3 5 5 6 9 7 8 10 10 9 7 8 8 7 7 7 8
Wind_Direction
5 333 73 42 172 235 239 250 223 47 156 213 246 218 203 223 192 214 339 167 137 157 163 167 165 158 155 151 150 149 147 147 147 146 143 140 140 141 142 138 133 134 124 119 119 115 113 108 106
346 63 42 99 209 229 247 205 260 262 18 345 297 239 255 265 259 66 124 159 149 159 161 165 167 160 156 153 153 153 152 151 151 152 149 145 147 144 139 135 133 126 119 116 122 120 117 114 105
329 338 92 141 218 225 216 81 32 268 340 339 329 346 316 260 358 222 174 149 151 159 167 166 166 164 159 155 155 155 155 153 152 151 151 152 148 146 143 136 129 124 118 121 126 127 126 117 104
11 17 28 242 236 248 185 253 25 0 338 73 340 289 310 110 331 295 167 150 151 158 166 168 166 166 163 158 157 158 158 157 154 156 157 153 150 145 143 135 126 124 123 126 128 131 128 117 107
33 64 263 249 261 254 284 312 321 309 299 285 14 282 291 325 359 11 167 155 154 160 159 168 167 168 165 161 159 159 161 158 155 156 157 156 150 144 139 133 130 128 129 130 132 136 134 119 99
45 100 193 247 258 289 268 150 301 292 287 279 290 282 252 290 37 355 8 313 166 160 162 166 169 168 167 164 161 161 161 159 158 157 156 155 148 141 140 136 135 134 134 134 136 137 134 120 106
127 102 231 274 274 278 276 34 200 263 258 277 259 264 260 334 28 1 352 342 275 172 156 165 166 167 167 165 163 163 161 161 161 159 156 153 143 143 144 142 142 140 138 138 137 136 131 122 113
150 104 263 232 270 283 269 254 214 244 272 244 186 246 252 148 357 358 333 315 323 192 170 160 164 164 168 167 164 163 163 160 161 157 149 146 143 144 143 145 147 141 137 139 138 137 134 130 122
60 227 245 252 259 273 290 288 286 248 259 275 224 249 266 321 333 347 336 300 351 215 183 172 161 166 166 163 165 159 159 158 156 151 145 143 145 145 143 144 143 139 139 142 143 143 141 142 137
184 230 247 243 243 262 274 258 270 268 271 266 260 267 274 274 279 270 243 277 292 314 186 175 168 166 162 161 164 159 158 158 155 154 151 146 148 146 145 144 140 143 143 145 148 150 152 151 156
191 238 245 255 257 246 258 266 244 247 261 239 257 258 255 238 240 258 261 222 238 333 183 173 168 168 162 163 160 157 153 154 158 156 150 150 152 141 145 143 138 138 144 145 151 155 162 172 176
227 239 241 260 250 258 259 268 257 234 251 257 250 247 248 252 244 229 229 227 313 311 338 178 170 167 165 158 160 156 154 155 161 158 143 155 151 153 145 141 140 141 151 151 159 164 174 192 209
225 245 251 254 260 256 263 260 259 262 259 255 258 276 271 250 250 232 213 223 252 222 291 196 169 165 163 161 159 153 151 153 157 155 153 155 158 165 147 147 150 151 160 166 169 173 185 212 237
254 262 262 264 257 255 251 260 218 260 256 255 255 254 260 248 248 241 196 178 210 295 261 173 168 158 161 165 160 155 154 153 153 159 160 158 165 169 160 157 159 159 171 179 177 181 190 209 212
250 269 275 263 249 240 218 264 238 255 266 258 255 250 256 247 236 227 217 142 159 192 263 165 166 158 159 165 161 162 157 156 155 159 166 163 163 169 172 151 164 167 177 182 186 197 208 215 221
242 231 302 308 250 247 119 271 264 247 236 252 249 251 249 244 217 196 186 132 116 56 288 130 151 161 160 158 164 161 170 159 161 158 168 170 167 173 169 161 161 167 178 180 180 183 194 203 205
274 280 281 300 225 236 187 268 269 255 225 246 259 255 234 239 219 184 160 142 131 146 300 291 153 150 147 157 158 159 162 163 163 162 173 172 173 173 171 176 183 175 178 176 173 178 164 172 184
261 286 283 299 316 281 241 251 269 269 260 271 270 245 221 227 205 173 179 137 123 178 115 289 269 128 163 155 130 143 158 165 167 170 172 171 176 170 172 177 184 175 169 171 178 151 164 166 182
248 265 272 290 289 306 255 253 270 288 259 263 258 257 226 237 166 154 147 129 133 152 146 207 248 131 142 173 154 164 165 163 170 168 163 164 172 170 172 173 172 174 177 171 166 153 164 155 143
261 253 284 289 274 252 271 275 327 315 271 264 211 250 207 182 114 111 127 134 162 161 148 166 203 209 188 178 178 161 168 164 162 160 159 159 160 165 167 166 171 172 165 169 167 153 139 132 131
290 252 327 310 320 299 307 292 6 357 10 355 313 300 182 148 155 146 146 160 181 139 140 190 194 204 197 172 157 143 145 129 138 152 147 157 161 163 165 165 167 174 167 178 172 171 156 143 76
301 268 339 319 347 310 2 294 6 355 10 8 7 354 127 147 142 148 163 159 157 121 165 164 190 190 189 174 163 161 164 166 172 164 167 163 165 166 168 171 174 180 173 171 167 151 151 138 141
262 284 272 279 295 322 355 65 350 357 26 3 9 355 9 153 133 146 152 147 136 130 153 167 195 203 191 176 168 166 159 161 159 167 178 168 172 174 177 173 171 179 178 172 161 158 161 162 151
316 263 306 230 131 52 6 41 351 359 4 14 5 5 12 288 116 129 117 94 105 120 150 277 182 191 194 185 165 166 162 140 168 175 175 175 177 182 182 176 173 166 174 177 166 156 165 168 163
357 33 8 19 33 83 344 59 22 352 360 11 6 354 12 351 88 91 98 133 122 145 186 230 322 268 154 161 170 164 168 172 205 188 178 168 173 181 184 168 166 168 159 164 149 164 187 185 164
310 17 82 102 103 82 26 42 27 4 15 359 13 9 11 15 36 74 40 76 112 144 189 187 83 351 118 134 117 158 163 173 187 218 204 183 184 187 176 164 172 193 186 174 154 156 158 173 194
321 31 21 31 3 64 18 15 343 358 9 355 359 29 5 28 37 25 2 47 178 171 208 151 81 67 33 145 144 135 134 182 174 184 201 196 166 166 135 168 192 160 156 155 155 174 179 199 200
72 302 48 5 72 71 36 37 16 354 1 16 14 14 11 19 37 38 22 352 307 303 144 212 166 154 112 20 133 121 145 142 135 148 169 169 163 158 164 177 209 192 193 178 179 182 187 198 217
358 11 21 100 34 126 134 56 13 358 2 6 13 18 18 17 16 27 26 20 4 356 129 166 186 181 165 166 123 127 194 160 127 156 188 192 185 196 180 186 208 200 191 186 185 181 176 204 202
90 357 69 93 317 31 126 70 15 350 26 20 8 11 20 24 20 18 22 27 29 28 41 42 231 193 190 183 186 182 190 179 177 194 178 170 198 208 199 201 197 201 190 187 194 192 192 190 205